Home   Weather   Renens   Past weeks

Flag for Switzerland Past Weather in Renens, Vaud, Switzerland — Yesterday and Last 2 Weeks

Now
68 °F

Mild.


Feels Like: 68 °F
Forecast: 48 / 72 °F
Wind: 2 mph from Northwest

Location: Aigle

Current Time: Sep 27, 2016 at 2:19:27 PM

Latest Report: Sep 27, 2016 at 1:00 PM


Visibility: N/A

Pressure: 30.24 "Hg

Humidity: 67%

Dew Point: 57 °F

Location of RenensLocation

Past Weather in Renens — Graph

°F

Renens Temperature Yesterday

Maximum temperature yesterday: 70 °F (at 3:00 PM)
Minimum temperature yesterday: 50 °F (at 8:00 AM)
Average temperature yesterday: 60 °F

High & Low Weather Summary for the Past Weeks

 TemperatureHumidityPressure
High82 °F (Sep 14, 2:00 PM)100% (Sep 18, 12:00 AM)30.30 "Hg (Sep 18, 12:00 AM)
Low47 °F (Sep 25, 7:00 AM)29% (Sep 14, 11:00 PM)29.74 "Hg (Sep 15, 2:00 AM)
Average60 °F83%30.05 "Hg
* Reported Sep 12 1:00 PM — Sep 27 1:00 PM, Renens, Weather by CustomWeather, © 2016

Note: Actual official high and low records may vary slightly from our data, if they occured in-between our weather recording intervals... More about our weather records

Advertising

Renens Weather History for the Previous 24 Hours

Scroll right to see more
 ConditionsComfort  
Time TempWeatherWind HumidityBarometerVisibility
1:00 PM
Tue, Sep 27
68 °FMild.2 mph67%30.24 "HgN/A
12:00 PM66 °FMild.2 mph73%30.25 "HgN/A
11:00 AM66 °FFog.7 mph78%30.25 "Hg5 mi
10:00 AM64 °FMild.2 mph84%30.25 "HgN/A
9:00 AM60 °FCool.1 mph94%30.24 "HgN/A
8:00 AM57 °FFog.No wind98%30.24 "Hg4 mi
7:00 AM58 °FCool.2 mph95%30.22 "HgN/A
6:00 AM59 °FCool.2 mph95%30.21 "HgN/A
5:00 AM60 °FFog.2 mph91%30.20 "Hg7 mi
4:00 AM58 °FCool.1 mph96%30.20 "HgN/A
3:00 AM59 °FCool.2 mph94%30.20 "HgN/A
2:00 AM61 °FCool.5 mph85%30.18 "HgN/A
1:00 AM57 °FCool.2 mph98%30.18 "HgN/A
12:00 AM58 °FCool.2 mph96%30.18 "HgN/A
11:00 PM
Mon, Sep 26
58 °FCool.1 mph97%30.18 "HgN/A
10:00 PM59 °FCool.1 mph94%30.17 "HgN/A
9:00 PM59 °FCool.1 mph94%30.16 "HgN/A
8:00 PM59 °FFog.1 mph95%30.14 "Hg9 mi
7:00 PM62 °FCool.1 mph93%30.12 "HgN/A
6:00 PM67 °FMild.3 mph77%30.09 "HgN/A
5:00 PM68 °FOvercast.3 mph67%30.08 "Hg11 mi
4:00 PM70 °FMild.9 mph62%30.07 "HgN/A
3:00 PM70 °FMild.12 mph63%30.07 "HgN/A
2:00 PM69 °FPassing clouds.8 mph66%30.08 "Hg12 mi
Weather by CustomWeather, © 2016

See weather overviewHow to use our weather pages